Regional Weather Roundup
Issued by NWS Midland/Odessa, TX

Skip options and go directly to product.
Home | Oldest Version | Previous Version | Current Version | All | Text Only | Save Text | Print | Product List | Glossary Off

Skip product version selection by date and time.   

153
ASUS44 KMAF 221310
RWRMAF
MIDLAND AREA WEATHER ROUNDUP
NATIONAL WEATHER SERVICE MIDLAND TX
700 AM CST SAT NOV 22 2014

...IN SOUTHWEST TEXAS AND SOUTHEAST NEW MEXICO...

CITY           SKY/WX    TMP DP  RH WIND       PRES   REMARKS
ALPINE         CLOUDY    43  41  91 S3        30.04R
ANDREWS        CLOUDY    55  54  97 CALM      29.97R
ARTESIA        NOT AVBL
BIG SPRING       N/A     59  56  91 N7        29.98S THUNDER
CARLSBAD       CLOUDY    50  39  66 N7        29.98F
DRYDEN           N/A     61  60  97 CALM      29.89F
FORT STOCKTON  CLOUDY    52  49  89 SW9       29.95S
GUAD PASS      MOCLDY    52  30  43 N9        30.02F
HOBBS          CLOUDY    54  54 100 CALM      30.01R FOG
MARFA          CLOUDY    39  36  87 NE3       30.01R
MIDLAND AIRPK  CLOUDY    59  59 100 E5        29.95F
MIDLAND INTL   CLOUDY    58  56  93 E6        29.94F
ODESSA         CLOUDY    55  53  93 E9        29.94S
PECOS          CLOUDY    51  50  94 E10G16    29.95S FOG
PRESIDIO       FAIR      53  46  79 CALM      29.95R
SEMINOLE       CLOUDY    53  51  93 CALM      29.98F
SNYDER         CLOUDY    58  57  97 SE7       29.97S
WINK           CLOUDY    54  50  86 NE3       29.97R
$$
...OTHER STATIONS IN TEXAS...

CITY           SKY/WX    TMP DP  RH WIND       PRES   REMARKS
ABILENE        MOCLDY    63  60  90 S9        29.98R
AMARILLO       CLEAR     42  37  82 SW13      29.97S WCI  35
AUSTIN         CLOUDY    66  63  90 SE8       30.01S
BROWNSVILLE    CLOUDY    72  70  93 SE9       29.97R
CORPUS CHRISTI MOCLDY    72  67  84 SE16G23   29.96R
DALLAS FTW     FOG       56  56 100 SE10      30.04R VSB 1
DEL RIO        LGT RAIN  67  65  93 SE10      29.90R
EL PASO        LGT RAIN  52  43  71 N12       30.01F
HOUSTON INT    PTCLDY    59  58  96 SE9       30.08S
LUBBOCK        CLOUDY    44  42  93 NW5       29.98S
SAN ANGELO     LGT RAIN  61  58  90 N3        29.95R
SAN ANTONIO    LGT RAIN  67  65  93 SE16      29.99F
WACO           CLOUDY    63  60  90 SE16      30.02F
WICHITA FALLS  NOT AVBL
$$
...OTHER LOCATIONS IN NEW MEXICO...

CITY           SKY/WX    TMP DP  RH WIND       PRES   REMARKS
ALAMAGORDO     CLOUDY    41  30  65 MISG      30.04R
ALBUQUERQUE    PTCLDY    34  19  54 N12       30.09R WCI  25
CANNON AFB     PTCLDY    43  41  95 W6        30.00F WCI  39
CLOVIS         PTCLDY    43  39  87 W8        30.00S WCI  38
HOLLOMAN AFB   MOCLDY    41  27  58 S3        30.03R
ROSWELL        MOCLDY    44  31  60 NW6       30.00S
RUIDOSO        CLOUDY    36  21  55 S6        30.10R WCI  31
SANTA FE       CLEAR     28  20  71 N15       30.07R WCI  16
TRUTH OR CONSE CLEAR     36  21  54 NE5       30.07R WCI  32
TUCUMCARI      CLEAR     34  23  64 W3        29.97S
$$

USA.gov is the U.S. government's official web portal to all federal, state and local government web resources and services.